Home > Weather > Mesa > Past weeks

Flag for USA Past Weather in Mesa, Arizona, USA — Yesterday and Last 2 Weeks

Now
84 °F

Clear.


Feels Like: 82 °F
Forecast: 76 / 101 °F
Wind: 3 mph from East

Location: Williams Gateway Airport

Current Time: Aug 28, 2016 at 10:48:54 PM

Latest Report: Aug 28, 2016 at 9:55 PM


Visibility: 20 mi

Pressure: 29.93 "Hg

Humidity: 29%

Dew Point: 48 °F

Location of MesaLocation

Past Weather in Mesa — Graph

°F

Mesa Temperature Yesterday

Maximum temperature yesterday: 93 °F (at 1:49 PM)
Minimum temperature yesterday: 77 °F (at 1:15 AM)
Average temperature yesterday: 83 °F

High & Low Weather Summary for the Past Weeks

 TemperatureHumidityPressure
High108 °F (Aug 16, 4:54 PM)69% (Aug 26, 4:35 AM)30.04 "Hg (Aug 26, 4:35 AM)
Low70 °F (Aug 28, 3:35 AM)12% (Aug 17, 2:53 PM)29.76 "Hg (Aug 19, 5:47 PM)
Average87 °F36%29.90 "Hg
* Reported Aug 13 8:50 PM — Aug 28 8:47 PM, Mesa, Weather by CustomWeather, © 2016

Note: Actual official high and low records may vary slightly from our data, if they occured in-between our weather recording intervals... More about our weather records

Advertising

Mesa Weather History for the Previous 24 Hours

Scroll right to see more
 ConditionsComfort  
Time TempWeatherWind HumidityBarometerVisibility
8:47 PM
Sun, Aug 28
90 °FClear.No wind22%29.92 "Hg20 mi
8:00 PM91 °FPassing clouds.No wind21%29.91 "Hg20 mi
6:47 PM93 °FPassing clouds.6 mph19%29.90 "Hg45 mi
5:49 PM97 °FPassing clouds.10 mph17%29.89 "Hg45 mi
3:47 PM97 °FPassing clouds.8 mph16%29.91 "Hg45 mi
2:47 PM95 °FPassing clouds.12 mph15%29.93 "Hg45 mi
1:50 PM95 °FPassing clouds.7 mph16%29.96 "Hg45 mi
12:47 PM93 °FPassing clouds.6 mph20%29.97 "Hg45 mi
11:47 AM91 °FSunny.7 mph23%29.99 "Hg45 mi
10:52 AM90 °FSunny.No wind22%30.01 "Hg45 mi
9:47 AM84 °FSunny.5 mph27%30.02 "Hg45 mi
8:59 AM82 °FSunny.No wind26%30.02 "Hg45 mi
7:50 AM93 °FSunny.7 mph20%30.01 "Hg45 mi
6:50 AM73 °FSunny.7 mph36%30.00 "Hg45 mi
5:47 AM70 °FPassing clouds.7 mph40%29.97 "Hg45 mi
4:47 AM72 °FPassing clouds.5 mph50%29.96 "Hg20 mi
4:15 AM70 °FClear.No wind53%29.95 "Hg10 mi
3:55 AM72 °FClear.No wind50%29.94 "Hg10 mi
3:35 AM70 °FClear.5 mph50%29.93 "Hg10 mi
3:15 AM72 °FClear.3 mph47%29.93 "Hg10 mi
2:55 AM77 °FClear.3 mph39%29.93 "Hg10 mi
2:35 AM77 °FClear.3 mph39%29.93 "Hg10 mi
2:15 AM77 °FClear.7 mph39%29.92 "Hg10 mi
1:55 AM79 °FClear.9 mph37%29.93 "Hg10 mi
1:35 AM79 °FClear.6 mph34%29.93 "Hg10 mi
1:15 AM79 °FClear.6 mph34%29.93 "Hg10 mi
12:55 AM77 °FClear.No wind34%29.93 "Hg10 mi
12:35 AM75 °FClear.7 mph36%29.92 "Hg10 mi
12:15 AM77 °FClear.No wind34%29.92 "Hg10 mi
11:55 PM
Sat, Aug 27
79 °FClear.No wind34%29.91 "Hg20 mi
10:47 PM82 °FClear.3 mph30%29.92 "Hg20 mi
Weather by CustomWeather, © 2016

See weather overviewHow to use our weather pages